This is the latest recevied weather packets stored in our database for station/object KG4ZVW. If no packets are shown the sender has not sent any weather packets the latest 10 day(s).
| Time | Temp. | Humidity | Pressure | Rain* | Wind** | Luminosity | Snow |
|---|---|---|---|---|---|---|---|
| 1777994919 | 28.33° C | 58% | 1016.1 hPa | 0 mm | - | 853 W/m² | - |
| 1777994614 | 27.78° C | 60% | 1016.1 hPa | 0 mm | - | 865 W/m² | - |
| 1777994310 | 27.78° C | 61% | 1016.1 hPa | 0 mm | - | 861 W/m² | - |
| 1777994005 | 27.78° C | 59% | 1016.1 hPa | 0 mm | - | 842 W/m² | - |
| 1777993702 | 27.78° C | 60% | 1015.9 hPa | 0 mm | - | 802 W/m² | - |
| 1777993417 | 27.78° C | 61% | 1015.9 hPa | 0 mm | - | 789 W/m² | - |
| 1777993112 | 27.78° C | 62% | 1015.9 hPa | 0 mm | - | 775 W/m² | - |
| 1777992812 | 27.78° C | 60% | 1015.9 hPa | 0 mm | - | 765 W/m² | - |
| 1777992509 | 27.78° C | 59% | 1015.9 hPa | 0 mm | - | 759 W/m² | - |
| 1777992204 | 27.78° C | 61% | 1015.9 hPa | 0 mm | - | 744 W/m² | - |
| 1777991921 | 27.22° C | 61% | 1015.6 hPa | 0 mm | - | 724 W/m² | - |
| 1777991615 | 27.22° C | 59% | 1015.6 hPa | 0 mm | - | 717 W/m² | - |
| 1777991310 | 27.22° C | 61% | 1015.6 hPa | 0 mm | - | 703 W/m² | - |
| 1777991006 | 27.22° C | 60% | 1015.8 hPa | 0 mm | - | 686 W/m² | - |
| 1777990701 | 27.22° C | 61% | 1015.8 hPa | 0 mm | - | 693 W/m² | - |
| 1777990420 | 27.22° C | 64% | 1015.8 hPa | 0 mm | - | 679 W/m² | - |
| 1777989808 | 26.67° C | 64% | 1015.9 hPa | 0 mm | - | 636 W/m² | - |
| 1777989504 | 26.67° C | 61% | 1015.9 hPa | 0 mm | - | 633 W/m² | - |
| 1777989220 | 26.11° C | 60% | 1015.9 hPa | 0 mm | - | 591 W/m² | - |
| 1777988916 | 26.11° C | 61% | 1015.9 hPa | 0 mm | - | 638 W/m² | - |
| 1777988609 | 26.11° C | 64% | 1015.9 hPa | 0 mm | - | 244 W/m² | - |
| 1777988304 | 26.67° C | 65% | 1015.6 hPa | 0 mm | - | 364 W/m² | - |
| 1777988019 | 26.67° C | 65% | 1015.6 hPa | 0 mm | - | 647 W/m² | - |
| 1777987713 | 26.67° C | 65% | 1015.6 hPa | 0 mm | - | 496 W/m² | - |
| 1777987409 | 26.11° C | 67% | 1015.5 hPa | 0 mm | - | 613 W/m² | - |
* Rain latest hour (hover to see other rain measurements)
** Current wind speed in m/s (hover to see current wind gust speed)